Time,TemperatureF,DewpointF,PressureIn,WindDirection,WindDirectionDegrees,WindSpeedMPH,WindSpeedGustMPH,Humidity,HourlyPrecipIn,Conditions,Clouds,dailyrainin,SoftwareType,DateUTC
2013-08-19 00:00:00,84.1,55.7,27.40,East,90,0.0,0.0,38,0.00,,,0.00,WUHU216HW,2013-08-19 07:00:00,
2013-08-19 00:05:00,83.9,55.5,27.40,ESE,113,0.2,0.2,38,0.00,,,0.00,WUHU216HW,2013-08-19 07:05:00,
2013-08-19 00:10:00,83.9,55.5,27.40,East,90,0.0,0.2,38,0.00,,,0.00,WUHU216HW,2013-08-19 07:10:00,
2013-08-19 00:15:00,83.7,55.4,27.40,NE,45,0.0,0.4,38,0.00,,,0.00,WUHU216HW,2013-08-19 07:15:00,
2013-08-19 00:20:00,83.7,55.4,27.40,NE,45,0.0,0.4,38,0.00,,,0.00,WUHU216HW,2013-08-19 07:20:00,
2013-08-19 00:25:00,83.7,55.4,27.40,NE,45,0.0,0.0,38,0.00,,,0.00,WUHU216HW,2013-08-19 07:25:00,
2013-08-19 00:30:00,83.7,56.2,27.40,NE,45,0.0,0.0,39,0.00,,,0.00,WUHU216HW,2013-08-19 07:30:00,
2013-08-19 00:35:00,83.7,56.2,27.40,NE,45,0.0,0.0,39,0.00,,,0.00,WUHU216HW,2013-08-19 07:35:00,
2013-08-19 00:37:00,83.5,56.0,27.40,NE,45,0.2,0.2,39,0.00,,,0.00,WUHU216HW,2013-08-19 07:37:00,
2013-08-19 00:40:00,83.5,56.0,27.40,NE,45,0.2,0.2,39,0.00,,,0.00,WUHU216HW,2013-08-19 07:40:00,
2013-08-19 00:45:00,83.5,56.0,27.40,NE,45,0.2,0.2,39,0.00,,,0.00,WUHU216HW,2013-08-19 07:45:00,
2013-08-19 01:00:00,83.2,55.6,27.38,NNE,23,0.0,0.0,39,0.00,,,0.00,WUHU216HW,2013-08-19 08:00:00,
2013-08-19 01:05:00,83.2,55.6,27.38,NNE,23,0.0,0.0,39,0.00,,,0.00,WUHU216HW,2013-08-19 08:05:00,
2013-08-19 01:10:00,83.0,56.3,27.38,SE,135,0.4,0.4,40,0.00,,,0.00,WUHU216HW,2013-08-19 08:10:00,
2013-08-19 01:15:00,82.8,56.2,27.38,SE,135,0.0,0.4,40,0.00,,,0.00,WUHU216HW,2013-08-19 08:15:00,
2013-08-19 01:20:00,82.6,56.0,27.38,SE,135,0.0,0.4,40,0.00,,,0.00,WUHU216HW,2013-08-19 08:20:00,
2013-08-19 01:25:00,82.4,55.8,27.38,SE,135,0.0,0.0,40,0.00,,,0.00,WUHU216HW,2013-08-19 08:25:00,
2013-08-19 01:30:00,82.4,55.8,27.37,SE,135,0.0,0.0,40,0.00,,,0.00,WUHU216HW,2013-08-19 08:30:00,
2013-08-19 01:35:00,82.1,56.1,27.37,NE,45,1.3,1.3,41,0.00,,,0.00,WUHU216HW,2013-08-19 08:35:00,
2013-08-19 01:40:00,81.9,55.9,27.37,ESE,113,0.0,1.3,41,0.00,,,0.00,WUHU216HW,2013-08-19 08:40:00,
2013-08-19 01:45:00,81.9,55.9,27.37,ESE,113,0.0,0.4,41,0.00,,,0.00,WUHU216HW,2013-08-19 08:45:00,
2013-08-19 01:50:00,81.7,55.8,27.37,ESE,113,0.0,0.0,41,0.00,,,0.00,WUHU216HW,2013-08-19 08:50:00,
2013-08-19 01:55:00,81.7,55.2,27.37,ESE,113,0.0,0.4,40,0.00,,,0.00,WUHU216HW,2013-08-19 08:55:00,
2013-08-19 02:00:00,81.7,55.2,27.37,SSE,158,0.0,0.7,40,0.00,,,0.00,WUHU216HW,2013-08-19 09:00:00,
2013-08-19 02:05:00,81.7,55.2,27.37,SE,135,0.0,0.7,40,0.00,,,0.00,WUHU216HW,2013-08-19 09:05:00,
2013-08-19 02:10:00,81.7,55.2,27.37,SSE,158,0.4,0.4,40,0.00,,,0.00,WUHU216HW,2013-08-19 09:10:00,
2013-08-19 02:15:00,81.7,55.2,27.37,SSE,158,0.0,0.9,40,0.00,,,0.00,WUHU216HW,2013-08-19 09:15:00,
2013-08-19 02:20:00,81.9,55.4,27.37,SE,135,0.0,0.9,40,0.00,,,0.00,WUHU216HW,2013-08-19 09:20:00,
2013-08-19 02:25:00,81.9,54.6,27.37,SSE,158,0.0,0.7,39,0.00,,,0.00,WUHU216HW,2013-08-19 09:25:00,
2013-08-19 02:30:00,82.1,54.7,27.37,NE,45,0.0,0.2,39,0.00,,,0.00,WUHU216HW,2013-08-19 09:30:00,
2013-08-19 02:35:00,82.1,54.7,27.37,North,0,0.0,0.4,39,0.00,,,0.00,WUHU216HW,2013-08-19 09:35:00,
2013-08-19 02:40:00,81.9,54.6,27.37,NNW,338,0.0,0.4,39,0.00,,,0.00,WUHU216HW,2013-08-19 09:40:00,
2013-08-19 02:45:00,81.9,54.6,27.37,North,0,0.0,0.0,39,0.00,,,0.00,WUHU216HW,2013-08-19 09:45:00,
2013-08-19 02:50:00,81.7,55.2,27.36,ENE,68,0.0,1.1,40,0.00,,,0.00,WUHU216HW,2013-08-19 09:50:00,
2013-08-19 02:55:00,81.7,55.2,27.36,NNE,23,0.0,1.1,40,0.00,,,0.00,WUHU216HW,2013-08-19 09:55:00,
2013-08-19 03:00:00,81.5,55.0,27.36,NNE,23,0.0,0.2,40,0.00,,,0.00,WUHU216HW,2013-08-19 10:00:00,
2013-08-19 03:05:00,81.5,55.0,27.36,NNE,23,0.0,0.0,40,0.00,,,0.00,WUHU216HW,2013-08-19 10:05:00,
2013-08-19 03:08:00,81.4,54.8,27.36,NE,45,0.0,0.0,40,0.00,,,0.00,WUHU216HW,2013-08-19 10:08:00,
2013-08-19 03:10:00,81.4,54.8,27.36,NE,45,0.0,0.0,40,0.00,,,0.00,WUHU216HW,2013-08-19 10:10:00,
2013-08-19 03:15:00,81.4,54.8,27.36,NE,45,0.0,0.0,40,0.00,,,0.00,WUHU216HW,2013-08-19 10:15:00,
2013-08-19 03:38:00,80.6,54.8,27.35,NE,45,1.1,1.1,41,0.00,,,0.00,WUHU216HW,2013-08-19 10:38:00,
2013-08-19 03:43:00,80.5,54.6,27.34,NE,45,1.1,1.1,41,0.00,,,0.00,WUHU216HW,2013-08-19 10:43:00,
2013-08-19 03:48:00,80.3,54.5,27.34,NE,45,1.1,1.8,41,0.00,,,0.00,WUHU216HW,2013-08-19 10:48:00,
2013-08-19 03:53:00,80.3,54.5,27.33,ENE,68,1.1,1.8,41,0.00,,,0.00,WUHU216HW,2013-08-19 10:53:00,
2013-08-19 03:58:00,80.3,54.5,27.33,ENE,68,0.0,1.6,41,0.00,,,0.00,WUHU216HW,2013-08-19 10:58:00,
2013-08-19 04:03:00,80.8,53.6,27.32,ESE,113,1.1,1.8,39,0.00,,,0.00,WUHU216HW,2013-08-19 11:03:00,
2013-08-19 04:08:00,81.4,54.1,27.32,SE,135,0.9,1.8,39,0.00,,,0.00,WUHU216HW,2013-08-19 11:08:00,
2013-08-19 04:13:00,81.9,53.7,27.32,NE,45,0.4,1.3,38,0.00,,,0.00,WUHU216HW,2013-08-19 11:13:00,
2013-08-19 04:18:00,82.4,53.5,27.32,North,0,2.0,2.5,37,0.00,,,0.00,WUHU216HW,2013-08-19 11:18:00,
2013-08-19 04:23:00,83.2,52.5,27.33,SW,225,2.2,2.5,35,0.00,,,0.00,WUHU216HW,2013-08-19 11:23:00,
2013-08-19 04:28:00,83.7,53.7,27.34,West,270,1.8,4.7,36,0.00,,,0.00,WUHU216HW,2013-08-19 11:28:00,
2013-08-19 04:33:00,83.3,54.3,27.34,North,0,0.9,4.7,37,0.00,,,0.00,WUHU216HW,2013-08-19 11:33:00,
2013-08-19 04:38:00,82.8,54.5,27.35,West,270,2.5,2.7,38,0.00,,,0.00,WUHU216HW,2013-08-19 11:38:00,
2013-08-19 04:43:00,82.6,54.4,27.34,WSW,248,2.2,3.8,38,0.00,,,0.00,WUHU216HW,2013-08-19 11:43:00,
2013-08-19 04:48:00,82.8,55.4,27.35,WNW,293,4.3,4.3,39,0.00,,,0.00,WUHU216HW,2013-08-19 11:48:00,
2013-08-19 04:53:00,82.6,55.2,27.36,NNW,338,0.9,4.3,39,0.00,,,0.00,WUHU216HW,2013-08-19 11:53:00,
2013-08-19 04:58:00,82.4,55.8,27.36,WNW,293,1.8,3.4,40,0.00,,,0.00,WUHU216HW,2013-08-19 11:58:00,
2013-08-19 05:03:00,82.3,56.3,27.37,WNW,293,1.3,2.5,41,0.00,,,0.00,WUHU216HW,2013-08-19 12:03:00,
2013-08-19 05:08:00,82.1,55.4,27.36,NNE,23,0.7,2.0,40,0.00,,,0.00,WUHU216HW,2013-08-19 12:08:00,
2013-08-19 05:13:00,82.1,55.4,27.37,North,0,0.0,1.1,40,0.00,,,0.00,WUHU216HW,2013-08-19 12:13:00,
2013-08-19 05:18:00,82.1,55.4,27.37,WNW,293,0.4,1.1,40,0.00,,,0.00,WUHU216HW,2013-08-19 12:18:00,
2013-08-19 05:23:00,82.1,55.4,27.37,West,270,0.0,0.4,40,0.00,,,0.00,WUHU216HW,2013-08-19 12:23:00,
2013-08-19 05:28:00,82.1,55.4,27.37,NE,45,0.4,0.4,40,0.00,,,0.00,WUHU216HW,2013-08-19 12:28:00,
2013-08-19 05:33:00,81.9,55.4,27.37,NE,45,0.0,0.4,40,0.00,,,0.00,WUHU216HW,2013-08-19 12:33:00,
2013-08-19 05:38:00,81.9,55.4,27.37,NE,45,0.0,0.0,40,0.00,,,0.00,WUHU216HW,2013-08-19 12:38:00,
2013-08-19 05:43:00,81.9,55.4,27.37,NE,45,0.0,0.0,40,0.00,,,0.00,WUHU216HW,2013-08-19 12:43:00,
2013-08-19 05:48:00,81.7,55.2,27.37,North,0,0.0,0.0,40,0.00,,,0.00,WUHU216HW,2013-08-19 12:48:00,
2013-08-19 05:53:00,81.7,55.8,27.37,SW,225,0.4,0.4,41,0.00,,,0.00,WUHU216HW,2013-08-19 12:53:00,
2013-08-19 05:58:00,81.5,55.6,27.38,SW,225,0.0,0.4,41,0.00,,,0.00,WUHU216HW,2013-08-19 12:58:00,
2013-08-19 06:03:00,81.5,55.6,27.37,SW,225,0.0,0.4,41,0.00,,,0.00,WUHU216HW,2013-08-19 13:03:00,
2013-08-19 06:08:00,81.5,55.6,27.38,South,180,0.0,0.4,41,0.00,,,0.00,WUHU216HW,2013-08-19 13:08:00,
2013-08-19 06:13:00,81.5,55.6,27.38,South,180,0.0,0.0,41,0.00,,,0.00,WUHU216HW,2013-08-19 13:13:00,
2013-08-19 06:18:00,81.4,55.4,27.38,South,180,0.0,0.0,41,0.00,,,0.00,WUHU216HW,2013-08-19 13:18:00,
2013-08-19 06:23:00,81.4,55.4,27.38,South,180,0.0,0.0,41,0.00,,,0.00,WUHU216HW,2013-08-19 13:23:00,
2013-08-19 06:28:00,81.2,55.3,27.38,South,180,0.0,0.0,41,0.00,,,0.00,WUHU216HW,2013-08-19 13:28:00,
2013-08-19 06:33:00,81.2,55.9,27.38,South,180,0.0,0.0,42,0.00,,,0.00,WUHU216HW,2013-08-19 13:33:00,
2013-08-19 06:38:00,81.0,55.7,27.38,South,180,0.0,0.0,42,0.00,,,0.00,WUHU216HW,2013-08-19 13:38:00,
2013-08-19 06:43:00,81.0,55.7,27.38,NE,45,0.0,0.7,42,0.00,,,0.00,WUHU216HW,2013-08-19 13:43:00,
2013-08-19 06:48:00,81.0,55.7,27.38,ENE,68,0.0,0.7,42,0.00,,,0.00,WUHU216HW,2013-08-19 13:48:00,
2013-08-19 06:53:00,81.0,56.3,27.39,ENE,68,0.0,0.0,43,0.00,,,0.00,WUHU216HW,2013-08-19 13:53:00,
2013-08-19 06:58:00,81.0,56.3,27.39,ENE,68,0.0,0.0,43,0.00,,,0.00,WUHU216HW,2013-08-19 13:58:00,
2013-08-19 07:03:00,81.0,56.3,27.39,SE,135,0.2,0.4,43,0.00,,,0.00,WUHU216HW,2013-08-19 14:03:00,
2013-08-19 07:08:00,81.0,56.3,27.39,SSE,158,0.0,0.4,43,0.00,,,0.00,WUHU216HW,2013-08-19 14:08:00,
2013-08-19 07:13:00,81.0,56.3,27.39,ENE,68,0.0,0.0,43,0.00,,,0.00,WUHU216HW,2013-08-19 14:13:00,
2013-08-19 07:18:00,81.2,56.5,27.39,NE,45,0.0,0.2,43,0.00,,,0.00,WUHU216HW,2013-08-19 14:18:00,
2013-08-19 07:23:00,81.4,56.7,27.40,NE,45,0.0,0.9,43,0.00,,,0.00,WUHU216HW,2013-08-19 14:23:00,
2013-08-19 07:28:00,81.5,56.8,27.39,NNE,23,0.4,1.6,43,0.00,,,0.00,WUHU216HW,2013-08-19 14:28:00,
2013-08-19 07:33:00,81.7,57.0,27.39,NNE,23,2.2,2.2,43,0.00,,,0.00,WUHU216HW,2013-08-19 14:33:00,
2013-08-19 07:38:00,82.1,56.7,27.39,NNW,338,1.1,2.2,42,0.00,,,0.00,WUHU216HW,2013-08-19 14:38:00,
2013-08-19 07:43:00,82.4,57.1,27.40,ENE,68,0.7,1.6,42,0.00,,,0.00,WUHU216HW,2013-08-19 14:43:00,
2013-08-19 07:48:00,82.6,57.2,27.40,NE,45,1.3,1.6,42,0.00,,,0.00,WUHU216HW,2013-08-19 14:48:00,
2013-08-19 07:53:00,82.8,56.7,27.40,NNE,23,0.2,1.6,41,0.00,,,0.00,WUHU216HW,2013-08-19 14:53:00,
2013-08-19 07:58:00,83.0,56.9,27.40,NE,45,0.0,0.9,41,0.00,,,0.00,WUHU216HW,2013-08-19 14:58:00,
2013-08-19 08:03:00,83.2,57.1,27.40,NNE,23,0.4,0.7,41,0.00,,,0.00,WUHU216HW,2013-08-19 15:03:00,
2013-08-19 08:08:00,83.3,57.3,27.40,North,0,0.0,0.7,41,0.00,,,0.00,WUHU216HW,2013-08-19 15:08:00,
2013-08-19 08:13:00,83.5,57.4,27.40,North,0,0.4,1.1,41,0.00,,,0.00,WUHU216HW,2013-08-19 15:13:00,
2013-08-19 08:14:00,83.5,57.4,27.40,North,0,0.7,0.7,41,0.00,,,0.00,WUHU216HW,2013-08-19 15:14:00,
2013-08-19 08:18:00,83.5,57.4,27.40,North,0,0.7,1.1,41,0.00,,,0.00,WUHU216HW,2013-08-19 15:18:00,
2013-08-19 08:23:00,83.5,57.4,27.40,North,0,0.7,0.7,41,0.00,,,0.00,WUHU216HW,2013-08-19 15:23:00,
2013-08-19 08:44:00,84.6,57.8,27.41,NE,45,0.0,0.0,40,0.00,,,0.00,WUHU216HW,2013-08-19 15:44:00,
2013-08-19 08:49:00,84.6,57.0,27.40,NE,45,0.0,0.0,39,0.00,,,0.00,WUHU216HW,2013-08-19 15:49:00,
2013-08-19 08:54:00,85.0,57.2,27.40,WNW,293,0.0,0.0,39,0.00,,,0.00,WUHU216HW,2013-08-19 15:54:00,
2013-08-19 08:59:00,85.1,56.6,27.41,SSE,158,0.0,0.9,38,0.00,,,0.00,WUHU216HW,2013-08-19 15:59:00,
2013-08-19 09:04:00,85.5,57.0,27.41,SSW,203,0.4,1.1,38,0.00,,,0.00,WUHU216HW,2013-08-19 16:04:00,
2013-08-19 09:09:00,86.0,56.7,27.41,SSW,203,0.0,1.1,37,0.00,,,0.00,WUHU216HW,2013-08-19 16:09:00,
2013-08-19 09:14:00,86.4,57.0,27.41,SSW,203,0.4,1.1,37,0.00,,,0.00,WUHU216HW,2013-08-19 16:14:00,
2013-08-19 09:19:00,86.8,57.3,27.40,SW,225,0.7,1.1,37,0.00,,,0.00,WUHU216HW,2013-08-19 16:19:00,
2013-08-19 09:24:00,87.1,56.8,27.40,SE,135,0.4,1.1,36,0.00,,,0.00,WUHU216HW,2013-08-19 16:24:00,
2013-08-19 09:29:00,87.5,57.2,27.40,SE,135,0.0,0.9,36,0.00,,,0.00,WUHU216HW,2013-08-19 16:29:00,
2013-08-19 09:34:00,87.8,55.8,27.40,SE,135,0.4,0.9,34,0.00,,,0.00,WUHU216HW,2013-08-19 16:34:00,
2013-08-19 09:39:00,88.0,56.0,27.40,SE,135,0.4,0.7,34,0.00,,,0.00,WUHU216HW,2013-08-19 16:39:00,
2013-08-19 09:44:00,88.2,56.1,27.40,West,270,0.0,0.9,34,0.00,,,0.00,WUHU216HW,2013-08-19 16:44:00,
2013-08-19 09:49:00,88.6,56.4,27.40,North,0,0.7,1.1,34,0.00,,,0.00,WUHU216HW,2013-08-19 16:49:00,
2013-08-19 09:54:00,88.9,56.7,27.40,WSW,248,1.1,1.1,34,0.00,,,0.00,WUHU216HW,2013-08-19 16:54:00,
2013-08-19 09:59:00,89.3,57.1,27.40,SSW,203,2.0,2.0,34,0.00,,,0.00,WUHU216HW,2013-08-19 16:59:00,
2013-08-19 10:04:00,89.8,56.7,27.40,SW,225,0.4,2.0,33,0.00,,,0.00,WUHU216HW,2013-08-19 17:04:00,
2013-08-19 10:09:00,90.0,56.9,27.40,NE,45,0.2,1.1,33,0.00,,,0.00,WUHU216HW,2013-08-19 17:09:00,
2013-08-19 10:14:00,90.5,56.6,27.40,SW,225,0.0,1.6,32,0.00,,,0.00,WUHU216HW,2013-08-19 17:14:00,
2013-08-19 10:19:00,91.3,55.6,27.40,WNW,293,1.1,1.8,30,0.00,,,0.00,WUHU216HW,2013-08-19 17:19:00,
2013-08-19 10:24:00,91.8,56.1,27.40,SSE,158,0.4,1.8,30,0.00,,,0.00,WUHU216HW,2013-08-19 17:24:00,
2013-08-19 10:29:00,92.2,56.3,27.40,West,270,2.0,2.9,30,0.00,,,0.00,WUHU216HW,2013-08-19 17:29:00,
2013-08-19 10:34:00,92.7,55.7,27.40,WSW,248,0.9,3.1,29,0.00,,,0.00,WUHU216HW,2013-08-19 17:34:00,
2013-08-19 10:39:00,93.2,56.2,27.40,NW,315,2.2,3.1,29,0.00,,,0.00,WUHU216HW,2013-08-19 17:39:00,
2013-08-19 10:44:00,93.4,56.4,27.40,WSW,248,1.1,2.2,29,0.00,,,0.00,WUHU216HW,2013-08-19 17:44:00,
2013-08-19 10:49:00,94.0,54.5,27.40,WSW,248,0.9,2.5,27,0.00,,,0.00,WUHU216HW,2013-08-19 17:49:00,
2013-08-19 10:54:00,94.5,55.1,27.39,WSW,248,1.6,2.5,27,0.00,,,0.00,WUHU216HW,2013-08-19 17:54:00,
2013-08-19 10:59:00,94.9,54.3,27.39,WNW,293,1.8,1.8,26,0.00,,,0.00,WUHU216HW,2013-08-19 17:59:00,
2013-08-19 11:04:00,95.2,54.5,27.39,North,0,1.1,1.8,26,0.00,,,0.00,WUHU216HW,2013-08-19 18:04:00,
2013-08-19 11:09:00,95.4,53.6,27.39,West,270,3.1,3.1,25,0.00,,,0.00,WUHU216HW,2013-08-19 18:09:00,
2013-08-19 11:14:00,95.6,54.8,27.39,West,270,2.7,3.1,26,0.00,,,0.00,WUHU216HW,2013-08-19 18:14:00,
2013-08-19 11:19:00,95.8,55.0,27.39,West,270,0.4,2.7,26,0.00,,,0.00,WUHU216HW,2013-08-19 18:19:00,
2013-08-19 11:24:00,95.9,55.2,27.38,WSW,248,1.6,2.5,26,0.00,,,0.00,WUHU216HW,2013-08-19 18:24:00,
2013-08-19 11:29:00,96.1,55.3,27.38,West,270,1.6,2.5,26,0.00,,,0.00,WUHU216HW,2013-08-19 18:29:00,
2013-08-19 11:34:00,96.5,54.6,27.38,WSW,248,1.6,2.2,25,0.00,,,0.00,WUHU216HW,2013-08-19 18:34:00,
2013-08-19 11:39:00,96.8,55.9,27.38,SW,225,1.8,2.2,26,0.00,,,0.00,WUHU216HW,2013-08-19 18:39:00,
2013-08-19 11:44:00,97.0,55.0,27.38,SSE,158,1.6,2.5,25,0.00,,,0.00,WUHU216HW,2013-08-19 18:44:00,
2013-08-19 11:49:00,97.6,55.5,27.37,SSW,203,1.6,2.9,25,0.00,,,0.00,WUHU216HW,2013-08-19 18:49:00,
2013-08-19 11:54:00,97.7,54.5,27.37,WSW,248,1.8,2.9,24,0.00,,,0.00,WUHU216HW,2013-08-19 18:54:00,
2013-08-19 11:59:00,97.9,55.7,27.37,WSW,248,1.1,2.7,25,0.00,,,0.00,WUHU216HW,2013-08-19 18:59:00,
2013-08-19 12:04:00,98.3,54.9,27.37,SSW,203,1.3,2.9,24,0.00,,,0.00,WUHU216HW,2013-08-19 19:04:00,
2013-08-19 12:09:00,98.5,55.1,27.37,WNW,293,1.1,2.9,24,0.00,,,0.00,WUHU216HW,2013-08-19 19:09:00,
2013-08-19 12:14:00,98.8,55.4,27.36,South,180,2.2,2.2,24,0.00,,,0.00,WUHU216HW,2013-08-19 19:14:00,
2013-08-19 12:19:00,99.2,55.7,27.36,SSW,203,1.8,2.9,24,0.00,,,0.00,WUHU216HW,2013-08-19 19:19:00,
2013-08-19 12:24:00,99.5,54.8,27.36,WSW,248,2.0,2.9,23,0.00,,,0.00,WUHU216HW,2013-08-19 19:24:00,
2013-08-19 12:29:00,99.9,55.2,27.36,WNW,293,1.1,2.0,23,0.00,,,0.00,WUHU216HW,2013-08-19 19:29:00,
2013-08-19 12:34:00,100.1,55.3,27.35,North,0,1.1,2.9,23,0.00,,,0.00,WUHU216HW,2013-08-19 19:34:00,
2013-08-19 12:39:00,100.3,55.4,27.35,SW,225,1.8,2.9,23,0.00,,,0.00,WUHU216HW,2013-08-19 19:39:00,
2013-08-19 12:44:00,100.6,54.6,27.35,SW,225,2.5,3.1,22,0.00,,,0.00,WUHU216HW,2013-08-19 19:44:00,
2013-08-19 12:49:00,100.6,54.6,27.35,West,270,1.6,3.1,22,0.00,,,0.00,WUHU216HW,2013-08-19 19:49:00,
2013-08-19 12:54:00,100.8,54.7,27.35,SW,225,1.8,3.1,22,0.00,,,0.00,WUHU216HW,2013-08-19 19:54:00,
2013-08-19 12:59:00,100.8,52.5,27.35,WSW,248,2.5,3.4,20,0.00,,,0.00,WUHU216HW,2013-08-19 19:59:00,
2013-08-19 13:04:00,100.6,54.6,27.34,WSW,248,1.3,3.8,22,0.00,,,0.00,WUHU216HW,2013-08-19 20:04:00,
2013-08-19 13:09:00,100.4,54.5,27.34,WSW,248,1.3,4.5,22,0.00,,,0.00,WUHU216HW,2013-08-19 20:09:00,
2013-08-19 13:14:00,100.6,54.6,27.34,ESE,113,0.0,4.5,22,0.00,,,0.00,WUHU216HW,2013-08-19 20:14:00,
2013-08-19 13:19:00,100.8,53.7,27.34,WSW,248,4.0,4.0,21,0.00,,,0.00,WUHU216HW,2013-08-19 20:19:00,
2013-08-19 13:24:00,100.8,54.7,27.33,SW,225,1.6,4.0,22,0.00,,,0.00,WUHU216HW,2013-08-19 20:24:00,
2013-08-19 13:29:00,101.0,54.9,27.33,SW,225,0.4,4.0,22,0.00,,,0.00,WUHU216HW,2013-08-19 20:29:00,
2013-08-19 13:34:00,101.2,53.9,27.32,West,270,0.4,4.0,21,0.00,,,0.00,WUHU216HW,2013-08-19 20:34:00,
2013-08-19 13:39:00,101.3,52.9,27.33,West,270,1.1,2.0,20,0.00,,,0.00,WUHU216HW,2013-08-19 20:39:00,
2013-08-19 13:44:00,101.7,51.4,27.32,NW,315,1.6,2.5,19,0.00,,,0.00,WUHU216HW,2013-08-19 20:44:00,
2013-08-19 13:49:00,102.1,51.7,27.32,WNW,293,1.1,2.7,19,0.00,,,0.00,WUHU216HW,2013-08-19 20:49:00,
2013-08-19 13:54:00,102.2,51.9,27.32,NW,315,1.8,3.4,19,0.00,,,0.00,WUHU216HW,2013-08-19 20:54:00,
2013-08-19 13:59:00,102.2,51.9,27.32,West,270,0.7,3.4,19,0.00,,,0.00,WUHU216HW,2013-08-19 20:59:00,
2013-08-19 14:04:00,102.4,51.9,27.32,West,270,1.8,4.3,19,0.00,,,0.00,WUHU216HW,2013-08-19 21:04:00,
2013-08-19 14:09:00,102.4,51.9,27.31,WNW,293,1.1,4.3,19,0.00,,,0.00,WUHU216HW,2013-08-19 21:09:00,
2013-08-19 14:14:00,102.6,52.1,27.31,West,270,1.6,2.5,19,0.00,,,0.00,WUHU216HW,2013-08-19 21:14:00,
2013-08-19 14:19:00,103.1,52.6,27.30,NNE,23,1.3,2.9,19,0.00,,,0.00,WUHU216HW,2013-08-19 21:19:00,
2013-08-19 14:24:00,103.3,52.7,27.30,SW,225,3.1,4.7,19,0.00,,,0.00,WUHU216HW,2013-08-19 21:24:00,
2013-08-19 14:29:00,103.5,51.0,27.30,WNW,293,3.8,4.7,18,0.00,,,0.00,WUHU216HW,2013-08-19 21:29:00,
2013-08-19 14:34:00,103.3,50.9,27.30,WSW,248,7.2,7.2,18,0.00,,,0.00,WUHU216HW,2013-08-19 21:34:00,
2013-08-19 14:39:00,103.0,52.4,27.29,WSW,248,1.8,7.2,19,0.00,,,0.00,WUHU216HW,2013-08-19 21:39:00,
2013-08-19 14:40:00,103.1,52.6,27.30,SW,225,1.8,1.8,19,0.00,,,0.00,WUHU216HW,2013-08-19 21:40:00,
2013-08-19 14:44:00,103.1,52.6,27.30,SW,225,1.8,3.6,19,0.00,,,0.00,WUHU216HW,2013-08-19 21:44:00,
2013-08-19 14:49:00,103.1,52.6,27.30,SW,225,1.8,1.8,19,0.00,,,0.00,WUHU216HW,2013-08-19 21:49:00,
2013-08-19 15:00:00,104.2,49.8,27.29,SSW,203,4.0,4.0,17,0.00,,,0.00,WUHU216HW,2013-08-19 22:00:00,
2013-08-19 15:05:00,103.9,49.5,27.29,NW,315,3.1,4.0,17,0.00,,,0.00,WUHU216HW,2013-08-19 22:05:00,
2013-08-19 15:10:00,103.7,51.1,27.29,WSW,248,1.6,3.8,18,0.00,,,0.00,WUHU216HW,2013-08-19 22:10:00,
2013-08-19 15:15:00,103.7,49.3,27.29,NW,315,3.4,6.9,17,0.00,,,0.00,WUHU216HW,2013-08-19 22:15:00,
2013-08-19 15:20:00,103.7,49.3,27.28,WSW,248,3.1,6.9,17,0.00,,,0.00,WUHU216HW,2013-08-19 22:20:00,
2013-08-19 15:25:00,103.7,51.1,27.29,WSW,248,1.8,4.5,18,0.00,,,0.00,WUHU216HW,2013-08-19 22:25:00,
2013-08-19 15:30:00,103.3,49.1,27.29,SW,225,3.4,4.7,17,0.00,,,0.00,WUHU216HW,2013-08-19 22:30:00,
2013-08-19 15:35:00,103.1,48.9,27.28,WSW,248,1.1,4.7,17,0.00,,,0.00,WUHU216HW,2013-08-19 22:35:00,
2013-08-19 15:40:00,103.0,50.6,27.28,SSE,158,2.5,3.1,18,0.00,,,0.00,WUHU216HW,2013-08-19 22:40:00,
2013-08-19 15:45:00,103.0,50.6,27.28,SW,225,4.5,4.5,18,0.00,,,0.00,WUHU216HW,2013-08-19 22:45:00,
2013-08-19 15:50:00,102.8,50.4,27.28,WSW,248,0.9,4.5,18,0.00,,,0.00,WUHU216HW,2013-08-19 22:50:00,
2013-08-19 15:55:00,102.6,50.3,27.28,WSW,248,1.3,2.7,18,0.00,,,0.00,WUHU216HW,2013-08-19 22:55:00,
2013-08-19 16:00:00,102.6,50.3,27.28,WSW,248,1.6,2.5,18,0.00,,,0.00,WUHU216HW,2013-08-19 23:00:00,
2013-08-19 16:05:00,102.6,50.3,27.28,WSW,248,1.1,3.1,18,0.00,,,0.00,WUHU216HW,2013-08-19 23:05:00,
2013-08-19 16:10:00,102.6,50.3,27.28,SSE,158,1.1,3.1,18,0.00,,,0.00,WUHU216HW,2013-08-19 23:10:00,
2013-08-19 16:15:00,102.6,50.3,27.27,SSW,203,0.9,1.8,18,0.00,,,0.00,WUHU216HW,2013-08-19 23:15:00,
2013-08-19 16:20:00,102.6,50.3,27.27,ESE,113,0.7,1.8,18,0.00,,,0.00,WUHU216HW,2013-08-19 23:20:00,
2013-08-19 16:25:00,102.6,50.3,27.27,SW,225,0.7,2.5,18,0.00,,,0.00,WUHU216HW,2013-08-19 23:25:00,
2013-08-19 16:30:00,102.6,50.3,27.27,SE,135,0.7,2.5,18,0.00,,,0.00,WUHU216HW,2013-08-19 23:30:00,
2013-08-19 16:35:00,102.6,50.3,27.28,SE,135,0.9,2.0,18,0.00,,,0.00,WUHU216HW,2013-08-19 23:35:00,
2013-08-19 16:40:00,102.6,50.3,27.27,WSW,248,0.7,2.7,18,0.00,,,0.00,WUHU216HW,2013-08-19 23:40:00,
2013-08-19 16:45:00,102.6,52.1,27.27,SSW,203,1.1,2.7,19,0.00,,,0.00,WUHU216HW,2013-08-19 23:45:00,
2013-08-19 16:50:00,102.4,51.9,27.27,SSE,158,0.9,2.5,19,0.00,,,0.00,WUHU216HW,2013-08-19 23:50:00,
2013-08-19 16:55:00,102.4,51.9,27.27,SW,225,0.7,2.7,19,0.00,,,0.00,WUHU216HW,2013-08-19 23:55:00,
2013-08-19 17:00:00,102.2,51.9,27.27,SW,225,1.1,2.7,19,0.00,,,0.00,WUHU216HW,2013-08-20 00:00:00,
2013-08-19 17:05:00,101.9,51.6,27.27,SW,225,2.5,2.9,19,0.00,,,0.00,WUHU216HW,2013-08-20 00:05:00,
2013-08-19 17:10:00,101.7,51.4,27.27,SW,225,0.7,2.9,19,0.00,,,0.00,WUHU216HW,2013-08-20 00:10:00,
2013-08-19 17:15:00,101.5,51.2,27.27,SW,225,1.1,3.4,19,0.00,,,0.00,WUHU216HW,2013-08-20 00:15:00,
2013-08-19 17:20:00,101.5,51.2,27.27,SW,225,1.3,3.6,19,0.00,,,0.00,WUHU216HW,2013-08-20 00:20:00,
2013-08-19 17:25:00,101.3,51.1,27.27,SW,225,1.1,3.6,19,0.00,,,0.00,WUHU216HW,2013-08-20 00:25:00,
2013-08-19 17:30:00,101.0,50.9,27.27,WSW,248,1.6,2.9,19,0.00,,,0.00,WUHU216HW,2013-08-20 00:30:00,
2013-08-19 17:35:00,100.8,50.7,27.27,SW,225,1.6,1.8,19,0.00,,,0.00,WUHU216HW,2013-08-20 00:35:00,
2013-08-19 17:40:00,100.6,50.6,27.27,SW,225,1.1,1.8,19,0.00,,,0.00,WUHU216HW,2013-08-20 00:40:00,
2013-08-19 17:45:00,100.4,52.2,27.27,SW,225,1.3,1.6,20,0.00,,,0.00,WUHU216HW,2013-08-20 00:45:00,
2013-08-19 17:50:00,100.3,52.0,27.27,SW,225,0.4,1.6,20,0.00,,,0.00,WUHU216HW,2013-08-20 00:50:00,
2013-08-19 17:55:00,99.9,50.0,27.27,West,270,0.9,1.1,19,0.00,,,0.00,WUHU216HW,2013-08-20 00:55:00,
2013-08-19 18:00:00,99.5,49.7,27.26,WSW,248,1.1,1.1,19,0.00,,,0.00,WUHU216HW,2013-08-20 01:00:00,
2013-08-19 18:05:00,99.4,51.3,27.26,WNW,293,0.2,1.1,20,0.00,,,0.00,WUHU216HW,2013-08-20 01:05:00,
2013-08-19 18:10:00,99.2,51.2,27.26,WNW,293,0.4,1.1,20,0.00,,,0.00,WUHU216HW,2013-08-20 01:10:00,
2013-08-19 18:15:00,99.0,51.0,27.27,WSW,248,0.4,1.1,20,0.00,,,0.00,WUHU216HW,2013-08-20 01:15:00,
2013-08-19 18:20:00,98.8,51.0,27.27,WSW,248,0.7,0.7,20,0.00,,,0.00,WUHU216HW,2013-08-20 01:20:00,
2013-08-19 18:25:00,98.6,50.8,27.27,WSW,248,0.4,0.7,20,0.00,,,0.00,WUHU216HW,2013-08-20 01:25:00,
2013-08-19 18:30:00,98.3,52.8,27.27,West,270,1.6,3.1,22,0.00,,,0.00,WUHU216HW,2013-08-20 01:30:00,
2013-08-19 18:35:00,97.9,52.4,27.27,WSW,248,1.1,3.1,22,0.00,,,0.00,WUHU216HW,2013-08-20 01:35:00,
2013-08-19 18:40:00,97.6,53.2,27.27,WSW,248,0.9,2.7,23,0.00,,,0.00,WUHU216HW,2013-08-20 01:40:00,
2013-08-19 18:45:00,97.6,53.2,27.27,SSW,203,0.9,2.7,23,0.00,,,0.00,WUHU216HW,2013-08-20 01:45:00,
2013-08-19 18:50:00,97.6,53.2,27.27,SW,225,1.8,2.7,23,0.00,,,0.00,WUHU216HW,2013-08-20 01:50:00,
2013-08-19 18:55:00,97.2,52.9,27.27,SW,225,2.5,4.3,23,0.00,,,0.00,WUHU216HW,2013-08-20 01:55:00,
2013-08-19 19:00:00,97.2,54.0,27.27,SW,225,1.3,4.3,24,0.00,,,0.00,WUHU216HW,2013-08-20 02:00:00,
2013-08-19 19:05:00,97.0,53.8,27.27,SW,225,0.4,2.5,24,0.00,,,0.00,WUHU216HW,2013-08-20 02:05:00,
2013-08-19 19:10:00,96.8,53.7,27.27,WSW,248,1.3,2.5,24,0.00,,,0.00,WUHU216HW,2013-08-20 02:10:00,
2013-08-19 19:15:00,96.7,53.6,27.27,WSW,248,0.4,2.2,24,0.00,,,0.00,WUHU216HW,2013-08-20 02:15:00,
2013-08-19 19:20:00,96.5,53.4,27.27,WSW,248,0.9,2.2,24,0.00,,,0.00,WUHU216HW,2013-08-20 02:20:00,
2013-08-19 19:25:00,96.3,53.3,27.27,SW,225,0.7,2.2,24,0.00,,,0.00,WUHU216HW,2013-08-20 02:25:00,
2013-08-19 19:30:00,96.1,54.2,27.27,West,270,0.4,0.9,25,0.00,,,0.00,WUHU216HW,2013-08-20 02:30:00,
2013-08-19 19:35:00,95.9,54.0,27.27,West,270,0.2,1.1,25,0.00,,,0.00,WUHU216HW,2013-08-20 02:35:00,
2013-08-19 19:40:00,95.8,53.9,27.27,NNE,23,0.0,1.1,25,0.00,,,0.00,WUHU216HW,2013-08-20 02:40:00,
2013-08-19 19:45:00,95.4,53.6,27.27,NNE,23,0.0,0.4,25,0.00,,,0.00,WUHU216HW,2013-08-20 02:45:00,
2013-08-19 19:46:00,95.4,53.6,27.27,NNE,23,0.0,0.0,25,0.00,,,0.00,WUHU216HW,2013-08-20 02:46:00,
2013-08-19 19:50:00,95.4,53.6,27.27,NNE,23,0.0,0.2,25,0.00,,,0.00,WUHU216HW,2013-08-20 02:50:00,
2013-08-19 19:55:00,95.4,53.6,27.27,NNE,23,0.0,0.0,25,0.00,,,0.00,WUHU216HW,2013-08-20 02:55:00,
2013-08-19 20:00:00,94.5,53.9,27.28,NNE,23,0.0,0.0,26,0.00,,,0.00,WUHU216HW,2013-08-20 03:00:00,
2013-08-19 20:05:00,94.1,53.7,27.28,NNE,23,0.0,0.0,26,0.00,,,0.00,WUHU216HW,2013-08-20 03:05:00,
2013-08-19 20:10:00,93.8,54.5,27.29,NNE,23,0.0,0.0,27,0.00,,,0.00,WUHU216HW,2013-08-20 03:10:00,
2013-08-19 20:15:00,93.6,54.3,27.29,NNE,23,0.0,0.0,27,0.00,,,0.00,WUHU216HW,2013-08-20 03:15:00,
2013-08-19 20:20:00,93.2,53.9,27.29,NE,45,0.0,0.0,27,0.00,,,0.00,WUHU216HW,2013-08-20 03:20:00,
2013-08-19 20:25:00,93.2,53.9,27.30,NE,45,0.0,0.4,27,0.00,,,0.00,WUHU216HW,2013-08-20 03:25:00,
2013-08-19 20:30:00,93.1,53.8,27.30,NE,45,0.0,0.4,27,0.00,,,0.00,WUHU216HW,2013-08-20 03:30:00,
2013-08-19 20:35:00,92.9,55.9,27.30,NE,45,0.0,0.0,29,0.00,,,0.00,WUHU216HW,2013-08-20 03:35:00,
2013-08-19 20:40:00,92.5,55.5,27.30,NE,45,0.0,0.0,29,0.00,,,0.00,WUHU216HW,2013-08-20 03:40:00,
2013-08-19 20:45:00,92.2,55.3,27.31,NE,45,0.0,0.4,29,0.00,,,0.00,WUHU216HW,2013-08-20 03:45:00,
2013-08-19 20:50:00,92.0,55.2,27.31,NE,45,0.0,0.4,29,0.00,,,0.00,WUHU216HW,2013-08-20 03:50:00,
2013-08-19 20:55:00,91.8,55.0,27.31,NE,45,0.0,0.0,29,0.00,,,0.00,WUHU216HW,2013-08-20 03:55:00,
2013-08-19 21:00:00,91.8,55.0,27.32,NE,45,0.0,0.0,29,0.00,,,0.00,WUHU216HW,2013-08-20 04:00:00,
2013-08-19 21:01:00,91.8,55.0,27.32,NE,45,0.0,0.0,29,0.00,,,0.00,WUHU216HW,2013-08-20 04:01:00,
2013-08-19 21:06:00,91.6,56.0,27.32,NE,45,0.0,0.0,30,0.00,,,0.00,WUHU216HW,2013-08-20 04:06:00,
2013-08-19 21:11:00,91.4,55.8,27.32,NE,45,0.0,0.0,30,0.00,,,0.00,WUHU216HW,2013-08-20 04:11:00,
2013-08-19 21:16:00,91.3,55.6,27.32,NE,45,0.0,0.0,30,0.00,,,0.00,WUHU216HW,2013-08-20 04:16:00,
2013-08-19 21:21:00,91.1,55.4,27.32,NE,45,0.0,0.0,30,0.00,,,0.00,WUHU216HW,2013-08-20 04:21:00,
2013-08-19 21:26:00,91.1,55.4,27.32,NE,45,0.0,0.0,30,0.00,,,0.00,WUHU216HW,2013-08-20 04:26:00,
2013-08-19 21:31:00,90.9,55.4,27.33,NE,45,0.0,0.4,30,0.00,,,0.00,WUHU216HW,2013-08-20 04:31:00,
2013-08-19 21:36:00,90.7,55.2,27.33,SE,135,0.2,1.1,30,0.00,,,0.00,WUHU216HW,2013-08-20 04:36:00,
2013-08-19 21:41:00,90.7,55.2,27.33,ESE,113,0.0,1.1,30,0.00,,,0.00,WUHU216HW,2013-08-20 04:41:00,
2013-08-19 21:46:00,90.5,55.0,27.33,NW,315,0.0,0.2,30,0.00,,,0.00,WUHU216HW,2013-08-20 04:46:00,
2013-08-19 21:51:00,90.5,55.8,27.33,NNW,338,0.0,0.2,31,0.00,,,0.00,WUHU216HW,2013-08-20 04:51:00,
2013-08-19 21:56:00,90.4,55.6,27.33,NE,45,0.0,0.4,31,0.00,,,0.00,WUHU216HW,2013-08-20 04:56:00,
2013-08-19 22:01:00,90.4,55.6,27.33,NE,45,0.0,0.4,31,0.00,,,0.00,WUHU216HW,2013-08-20 05:01:00,
2013-08-19 22:06:00,90.4,55.6,27.34,NNE,23,0.0,0.2,31,0.00,,,0.00,WUHU216HW,2013-08-20 05:06:00,
2013-08-19 22:11:00,90.4,55.6,27.34,NNE,23,0.0,0.2,31,0.00,,,0.00,WUHU216HW,2013-08-20 05:11:00,
2013-08-19 22:16:00,90.2,55.4,27.33,NNE,23,0.0,0.0,31,0.00,,,0.00,WUHU216HW,2013-08-20 05:16:00,
2013-08-19 22:21:00,90.0,55.3,27.33,North,0,0.0,0.0,31,0.00,,,0.00,WUHU216HW,2013-08-20 05:21:00,
2013-08-19 22:26:00,90.0,55.3,27.33,North,0,0.0,0.0,31,0.00,,,0.00,WUHU216HW,2013-08-20 05:26:00,
2013-08-19 22:31:00,89.8,54.4,27.33,North,0,0.0,0.0,30,0.00,,,0.00,WUHU216HW,2013-08-20 05:31:00,
2013-08-19 22:36:00,89.6,54.2,27.33,North,0,0.0,0.0,30,0.00,,,0.00,WUHU216HW,2013-08-20 05:36:00,
2013-08-19 22:41:00,89.6,55.8,27.33,North,0,0.0,0.0,32,0.00,,,0.00,WUHU216HW,2013-08-20 05:41:00,
2013-08-19 22:46:00,89.5,55.6,27.33,North,0,0.0,0.0,32,0.00,,,0.00,WUHU216HW,2013-08-20 05:46:00,
2013-08-19 22:51:00,89.3,57.1,27.32,North,0,0.0,0.2,34,0.00,,,0.00,WUHU216HW,2013-08-20 05:51:00,
2013-08-19 22:56:00,88.9,60.0,27.32,North,0,0.0,0.2,38,0.00,,,0.00,WUHU216HW,2013-08-20 05:56:00,
2013-08-19 23:01:00,88.4,59.5,27.32,North,0,0.0,0.0,38,0.00,,,0.00,WUHU216HW,2013-08-20 06:01:00,
2013-08-19 23:06:00,87.7,59.7,27.32,North,0,0.0,0.0,39,0.00,,,0.00,WUHU216HW,2013-08-20 06:06:00,
2013-08-19 23:11:00,87.3,58.6,27.32,North,0,0.0,0.0,38,0.00,,,0.00,WUHU216HW,2013-08-20 06:11:00,
2013-08-19 23:16:00,87.1,56.8,27.32,North,0,0.0,0.0,36,0.00,,,0.00,WUHU216HW,2013-08-20 06:16:00,
2013-08-19 23:21:00,87.1,56.8,27.33,NNW,338,0.0,0.0,36,0.00,,,0.00,WUHU216HW,2013-08-20 06:21:00,
2013-08-19 23:26:00,87.1,56.8,27.33,NNW,338,0.0,0.0,36,0.00,,,0.00,WUHU216HW,2013-08-20 06:26:00,
2013-08-19 23:31:00,87.1,56.8,27.32,NNW,338,0.0,0.0,36,0.00,,,0.00,WUHU216HW,2013-08-20 06:31:00,
2013-08-19 23:36:00,86.9,55.8,27.33,North,0,0.0,0.4,35,0.00,,,0.00,WUHU216HW,2013-08-20 06:36:00,
2013-08-19 23:41:00,86.8,55.7,27.33,North,0,0.0,0.4,35,0.00,,,0.00,WUHU216HW,2013-08-20 06:41:00,
2013-08-19 23:46:00,86.6,55.5,27.33,North,0,0.0,0.0,35,0.00,,,0.00,WUHU216HW,2013-08-20 06:46:00,
2013-08-19 23:51:00,86.6,56.4,27.33,North,0,0.0,0.0,36,0.00,,,0.00,WUHU216HW,2013-08-20 06:51:00,
2013-08-19 23:56:00,86.4,56.2,27.33,North,0,0.0,0.0,36,0.00,,,0.00,WUHU216HW,2013-08-20 06:56:00,